Greensboro, NC

1:05 PM EDT on April 26, 2017 (GMT -0400)
Piedmont Triad International

Weather History for KGSO - September, 2012

Change the Weather History Date:

Sunday, September 9, 2012

  Actual Average Record
Temperature  
Mean Temperature 70 °F 73 °F  
Max Temperature 79 °F 82 °F 99 °F (1939)
Min Temperature 60 °F 63 °F 47 °F (1951)
Degree Days  
Heating Degree Days 0 0  
Month to date heating degree days 0 0  
Since 1 July heating degree days 0 1  
Cooling Degree Days 5 8  
Month to date cooling degree days 118 80  
Year to date cooling degree days 1537 1342  
Growing Degree Days 20 (Base 50)    
Moisture  
Dew Point 52 °F    
Average Humidity 54    
Maximum Humidity 73    
Minimum Humidity 35    
Precipitation  
Precipitation 0.00 in 0.16 in 1.40 in (1988)
Month to date precipitation 1.42 1.37  
Year to date precipitation 28.16 30.16  
Sea Level Pressure  
Sea Level Pressure 29.91 in    
Wind  
Wind Speed 6 mph (North)    
Max Wind Speed 14 mph    
Max Gust Speed 18 mph    
Visibility 10 miles    
Events      
T = Trace of Precipitation, MM = Missing Value Source: NWS Daily Summary

Daily Weather History Graph

Daily Weather History Graph

Search for Another Location

Airport or City:

Trip Planner

Search our weather history database for the weather conditions in past years. The results will help you decide how hot, cold, wet, or windy it might be!

Date:

Astronomy

Sep. 09, 2012 Rise Set
Actual Time 6:57 AM EDT 7:35 PM EDT
Civil Twilight 6:32 AM EDT 8:01 PM EDT
Nautical Twilight 6:01 AM EDT 8:31 PM EDT
Astronomical Twilight 5:30 AM EDT 9:02 PM EDT
Moon 12:34 AM EDT (9/9) 3:11 PM EDT (9/9)
Length of Visible Light 13h 28m
Length of Day
12h 37m
Last Quarter, 39% of the Moon is Illuminated
Sep 9
Last Quarter
Sep 15
New
Sep 22
First Quarter
Sep 29
Full
Oct 8
Last Quarter

Hourly Weather History & Observations

Time (EDT) Temp. Dew Point Humidity Pressure Visibility Wind Dir Wind Speed Gust Speed Precip Events Conditions
12:54 AM 66.9 °F 55.9 °F 68% 29.86 in 10.0 mi North 5.8 mph - 0.00 in   Overcast
1:54 AM 64.9 °F 51.1 °F 61% 29.86 in 10.0 mi North 6.9 mph - N/A   Overcast
2:54 AM 64.0 °F 52.0 °F 65% 29.85 in 10.0 mi North 8.1 mph - N/A   Overcast
3:54 AM 63.0 °F 50.0 °F 63% 29.85 in 10.0 mi North 6.9 mph 17.3 mph N/A   Mostly Cloudy
4:54 AM 62.1 °F 51.1 °F 67% 29.86 in 10.0 mi North 4.6 mph - N/A   Overcast
5:54 AM 60.1 °F 51.1 °F 72% 29.86 in 10.0 mi North 4.6 mph - N/A   Mostly Cloudy
6:02 AM 60.8 °F 51.8 °F 72% 29.88 in 10.0 mi North 5.8 mph - N/A   Mostly Cloudy
6:54 AM 61.0 °F 52.0 °F 72% 29.88 in 10.0 mi North 4.6 mph - N/A   Overcast
7:54 AM 61.0 °F 52.0 °F 72% 29.91 in 10.0 mi North 4.6 mph - N/A   Mostly Cloudy
8:27 AM 62.6 °F 51.8 °F 68% 29.94 in 10.0 mi North 4.6 mph - N/A   Overcast
8:54 AM 64.0 °F 53.1 °F 67% 29.93 in 10.0 mi North 5.8 mph - N/A   Overcast
9:54 AM 66.0 °F 53.1 °F 63% 29.94 in 10.0 mi North 6.9 mph - N/A   Mostly Cloudy
10:54 AM 69.1 °F 52.0 °F 54% 29.95 in 10.0 mi NNE 10.4 mph 16.1 mph N/A   Mostly Cloudy
11:54 AM 73.0 °F 52.0 °F 48% 29.94 in 10.0 mi North 8.1 mph - N/A   Partly Cloudy
12:54 PM 75.0 °F 50.0 °F 41% 29.92 in 10.0 mi North 5.8 mph - N/A   Scattered Clouds
1:54 PM 75.9 °F 51.1 °F 42% 29.91 in 10.0 mi NNW 9.2 mph - N/A   Mostly Cloudy
2:54 PM 78.1 °F 48.9 °F 36% 29.89 in 10.0 mi NNW 12.7 mph 17.3 mph N/A   Mostly Cloudy
3:54 PM 78.1 °F 48.0 °F 35% 29.88 in 10.0 mi North 10.4 mph - N/A   Scattered Clouds
4:54 PM 78.1 °F 48.9 °F 36% 29.89 in 10.0 mi Variable 5.8 mph - N/A   Scattered Clouds
5:54 PM 77.0 °F 48.0 °F 36% 29.91 in 10.0 mi North 5.8 mph - N/A   Scattered Clouds
6:54 PM 75.0 °F 48.9 °F 40% 29.92 in 10.0 mi North 4.6 mph - N/A   Partly Cloudy
7:54 PM 71.1 °F 51.1 °F 49% 29.93 in 10.0 mi Calm Calm - N/A   Partly Cloudy
8:54 PM 66.9 °F 55.0 °F 66% 29.95 in 10.0 mi Calm Calm - N/A   Clear
9:54 PM 66.9 °F 54.0 °F 63% 29.98 in 10.0 mi NNW 3.5 mph - N/A   Clear
10:54 PM 66.0 °F 54.0 °F 65% 29.99 in 10.0 mi NNW 4.6 mph - N/A   Clear
11:54 PM 64.0 °F 55.0 °F 73% 30.00 in 10.0 mi North 3.5 mph - N/A   Clear